sat.trackr.live / text

‹ back to catalog

STARLINK-5021

NORAD 53902 · 2022-119S

PAYLOAD ACTIVE UNKNOWN

§ Identity

Operator
Country
US
Launch date
2022-09-24
Launch site
AFETR
Launch vehicle
Mass (kg)
RCS (m²)

Purposes: comms

External: N2YO · Heavens-Above · Gunter

§ Orbital elements

Epoch: 2026-09-19T21:42:49.389120Z

Period
94.01 min
Inclination
53.1599°
Eccentricity
0.0001334
Mean motion
15.31696007 rev/d
Perigee alt
469.8 km
Apogee alt
471.7 km
Semi-major
6,848.9 km
B*
1.9632e-5
RAAN
111.2563°
Arg perigee
97.9431°
Mean anomaly
262.1722°
Rev number
22,185

§ Raw data

STARLINK-50211 53902U 22119S   26262.90473830  .00000244  00000+0  19632-4 0  99902 53902  53.1599 111.2563 0001334  97.9431 262.1722 15.31696007221854

JSON: /api/v1/satellites/53902 · /tle

For live sub-satellite position, see the globe view (requires WebGL).

§ Visibility from observer

Set your observer location to see the next 7 days of passes ≥ 10°. The values pass through the URL so the page stays shareable.

No JS? Fill the form by hand. The geolocation button needs JavaScript.